Flag for Spain Weather past 2 weeks in Santander, Spain

Now
73 °F

Passing clouds.


Feels Like: 77 °F
Forecast: 67 / 71 °F
Wind: 12 mph from East

Location: Santander / Parayas

Current Time: Jul 4, 2015 at 11:16:39 AM

Latest Report: Jul 4, 2015 at 10:30 AM


Visibility: N/A

Pressure: 30.18 "Hg

Humidity: 57%

Dew point: 57 °F

Location of SantanderLocation

Historic Weather in Santander — Graph

°F

Santander temperature yesterday

Maximum temperature yesterday: 90 °F (at 3:00 PM)
Minimum temperature yesterday: 61 °F (at 6:00 AM)
Average temperature yesterday: 72 °F

Past Weeks' High & Low Weather Summary

 TemperatureHumidityPressure
High90 °F (Jul 3, 3:00 PM)100% (Jun 21, 7:30 AM)30.27 "Hg (Jun 21, 7:30 AM)
Low54 °F (Jun 20, 6:30 AM)46% (Jun 30, 12:30 PM)29.86 "Hg (Jun 30, 6:30 AM)
Average67 °F80%30.10 "Hg
* Reported Jun 19 10:00 AM — Jul 4 10:00 AM, Santander, Weather by CustomWeather, © 2015

Note: Actual official high and low records may vary slightly from our data, if they occured in-between our weather recording intervals... More about our weather records

Advertising

Santander weather history for previous 24 hours

 ConditionsComfort  
Time TempWeatherWind HumidityBarometerVisibility
10:00 AM
Sat, Jul 4
70 °FSunny.2 mph60%30.18 "Hg10 mi
9:30 AM66 °FSunny.No wind68%30.18 "Hg10 mi
9:00 AM64 °FSunny.No wind73%30.18 "Hg10 mi
8:30 AM63 °FSunny.No wind83%30.18 "Hg10 mi
8:00 AM61 °FSunny.No wind83%30.18 "Hg10 mi
7:30 AM59 °FClear.No wind88%30.18 "Hg10 mi
7:00 AM57 °FClear.No wind88%30.18 "Hg10 mi
6:30 AM59 °FClear.No wind82%30.18 "Hg10 mi
6:00 AM59 °FClear.No wind82%30.15 "Hg10 mi
5:30 AM59 °FClear.No wind82%30.15 "Hg10 mi
11:00 PM
Fri, Jul 3
68 °FPassing clouds.6 mph73%30.12 "HgN/A
10:30 PM68 °FSunny.7 mph73%30.12 "Hg10 mi
10:00 PM68 °FPassing clouds.7 mph78%30.09 "HgN/A
9:30 PM68 °FPassing clouds.10 mph83%30.09 "HgN/A
9:00 PM70 °FPassing clouds.13 mph78%30.07 "HgN/A
8:30 PM70 °FScattered clouds.14 mph78%30.07 "HgN/A
8:00 PM72 °FPartly sunny.13 mph73%30.04 "HgN/A
7:30 PM72 °FPartly sunny.15 mph78%30.04 "HgN/A
7:00 PM72 °FPartly sunny.16 mph78%30.04 "HgN/A
6:46 PM72 °FPartly sunny.16 mph78%30.01 "HgN/A
6:30 PM73 °FScattered clouds.18 mph74%30.01 "HgN/A
6:00 PM75 °FPassing clouds.23 mph69%29.98 "HgN/A
5:30 PM77 °FPassing clouds.23 mph65%29.98 "HgN/A
5:00 PM79 °FPassing clouds.21 mph58%29.95 "HgN/A
4:30 PM81 °FPassing clouds.9 mph54%29.92 "HgN/A
4:00 PM81 °FPassing clouds.7 mph58%29.92 "HgN/A
3:30 PM84 °FPassing clouds.6 mph51%29.92 "HgN/A
3:00 PM90 °FPassing clouds.3 mph46%29.92 "HgN/A
2:30 PM84 °FSunny.3 mph55%29.92 "Hg10 mi
2:00 PM84 °FPassing clouds.5 mph55%29.92 "HgN/A
1:30 PM84 °FSunny.2 mph58%29.95 "Hg10 mi
1:00 PM81 °FPassing clouds.3 mph66%29.95 "HgN/A
12:30 PM77 °FSunny.2 mph74%29.95 "Hg10 mi
12:00 PM73 °FPassing clouds.3 mph78%29.98 "HgN/A
11:30 AM73 °FSunny.1 mph78%29.98 "Hg10 mi
11:00 AM70 °FClear.No wind88%29.98 "Hg6 mi
Weather by CustomWeather, © 2015

See weather overviewHow to use our weather pages